Preview of NWS' New Version of Forecast
This preview is not operational and should not be used for support decisions.
Latest weather observations around

Bar Harbor, Hancock County-Bar Harbor Airport (KBHB)

Using English Units (Switch to International System of Units)
Date/ Time (EDT) Wind (mph) Vis. (mi) Weather Sky Cond. Temp (°F) Rel. Humidity Wind Chill (°F) Heat Index (°F) Pressure Precip. (in)
Air Dwpt 6 hour Altimeter (inHg) Sea level (inHg) 1 hr 3 hr 6 hr
Max Min
Jun 24 11:56 N 14 10 Clear CLR 68 45     43%     29.83 29.84      
Jun 24 10:56 6 10 Clear CLR 67 44     44%     29.84 29.85      
Jun 24 09:56 N 11 10 Clear CLR 65 45     48%     29.83 29.84      
Jun 24 08:56 NNE 11 10 Clear CLR 62 46     56%     29.83 29.84      
Jun 24 07:56 NNE 9 10 Clear CLR 60 51     72%     29.84 29.85      
Jun 24 06:56 Calm 10 Clear CLR 55 52     89%     29.82 29.83      
Jun 24 05:56 Calm 10 Clear CLR 49 48     97%     29.8 29.81      
Jun 24 04:56 Calm 8 Clear CLR 48 48     100%     29.78 29.79      
Jun 24 03:56 NNW 3 5 Fog/Mist CLR 49 49     100% 48   29.77 29.78      
Jun 24 03:47 Calm 3 Fog/Mist CLR 50 48     94%     29.77        
Jun 24 03:40 Calm 1.25 Fog/Mist CLR 50 48     94%     29.77        
Jun 24 03:31 Calm 0.75 Fog/Mist CLR 48 48     100%     29.77        
Jun 24 03:29 Calm 1.5 Fog/Mist CLR 50 48     94%     29.77        
Jun 24 02:56 Calm 8 Clear CLR 52 51     97%     29.77 29.78      
Jun 24 02:51 Calm 5 Fog/Mist CLR 52 52     100%     29.77        
Jun 24 02:41 Calm 1 Fog/Mist CLR 52 52     100%     29.77        
Jun 24 01:56 N 3 10 Clear CLR 54 53     97%     29.75 29.76     0
Jun 24 00:56 N 5 10 Clear CLR 56 55     97%     29.75 29.76      
Jun 24 00:10 NNW 3 5 Fog/Mist SCT100 55 55     100%     29.74        
Jun 24 00:00 Calm 1 Fog/Mist BKN095 55 54     94%     29.74        
Jun 23 23:56 Calm 9 Mostly Cloudy BKN095 55 54     96%     29.73 29.74      
Jun 23 22:56 Calm 10 Mostly Cloudy BKN095 57 56     96%     29.71 29.72 0 0  
Jun 23 21:56 Calm 10 Clear CLR 57 56     96%     29.7 29.7      
Jun 23 20:56 WNW 3 10 Partly Cloudy SCT085 SCT110 58 56     93%     29.67 29.68      
Jun 23 19:56 Calm 10 Cloudy SCT080 BKN090 OVC110 61 56     83%     29.67 29.68 0   0
Jun 23 19:35 N 13 7 Rain FEW040 BKN080 OVC090 61 55     82%     29.69   0    
Jun 23 19:18 N 13 9 Light Rain BKN075 OVC090 64 55     73%     29.68   0    
Jun 23 18:56 Calm 10 Thunderstorms and Rain FEW016 SCT035 OVC080 62 55     78%     29.65 29.66 0    
Jun 23 18:45 3 3 Thunderstorms and Heavy Rain FEW016 BKN036 OVC075 61 55     82%     29.67   0    
Jun 23 18:34   1.75 Thunderstorms and Heavy Rain FEW016 BKN075 OVC090 63 55     77%     29.67   0    
Jun 23 18:30   2.5 Heavy Rain FEW029 BKN075 OVC090 64 55     73%         0    
Jun 23 18:27 NNW 13 3 Thunderstorms and Heavy Rain FEW026 BKN075 OVC090 64 57     77%     29.65   0    
Jun 23 18:08 NNE 11 10 Light Rain FEW024 BKN075 OVC090 64 57     77%     29.63   0    
Jun 23 17:56   8 Rain FEW065 BKN080 OVC110 67 56     68%     29.64 29.65 0    
Jun 23 16:56 WNW 17 10 Partly Cloudy SCT085 80 50     35%   79 29.6 29.61      
Jun 23 15:56 NW 13 10 Mostly Clear FEW080 79 50     36%   78 29.61 29.62      
Jun 23 14:56 NNW 11 10 Cloudy BKN085 OVC110 78 50     37%   77 29.62 29.63      
Jun 23 13:56 NW 15 10 Partly Cloudy FEW075 SCT095 80 51     36%   79 29.63 29.64      
Jun 23 12:56 NW 15 10 Mostly Clear FEW070 79 52     39%   78 29.66 29.67      
Jun 23 11:56 NW 10 10 Clear CLR 77 52     42%   76 29.7 29.71      
Jun 23 10:56 W 13 10 Clear CLR 76 51     42%   75 29.71 29.72      
Jun 23 09:56 NW 10 10 Clear CLR 73 52     48%   72 29.74 29.75      
Jun 23 08:56 W 14 10 Clear CLR 70 52     53%     29.75 29.76      
Jun 23 07:56 W 7 10 Clear CLR 67 51     57%     29.76 29.77      
Jun 23 06:56 WNW 8 10 Clear CLR 64 49     58%     29.75 29.75      
Jun 23 05:56 6 10 Clear   61 48     62%     29.73 29.74      
Jun 23 04:56 WNW 5 10 Clear CLR 60 47     62%     29.72 29.73      
Jun 23 03:56 WNW 6 10 Clear CLR 60 47     62%     29.71 29.72      
Jun 23 02:56 WNW 6 10 Clear CLR 58 47     67%     29.71 29.72      
Jun 23 01:56 3 10 Clear CLR 56 49     77%     29.71 29.72      
Jun 23 00:56 Calm 10 Clear CLR 54 50     86%     29.72 29.72      
Jun 22 23:56 Calm 10 Clear CLR 59 49     69%     29.72 29.73      
Jun 22 22:56 Calm 10 Mostly Clear FEW110 61 49     64%     29.72 29.73      
Jun 22 21:56 W 5 10 Mostly Cloudy BKN120 62 51     67%     29.73 29.74      
Jun 22 20:56 W 3 10 Clear CLR 63 51     65%     29.72 29.72      
Jun 22 19:56 N 7 10 Cloudy SCT090 OVC110 67 51     57%     29.71 29.72     0
Jun 22 18:56 NW 7 10 Clear CLR 69 49     49%     29.69 29.7 0    
Jun 22 17:56 WNW 6 10 Clear CLR 69 52     54%     29.68 29.69      
Jun 22 16:56 WSW 6 10 Clear CLR 68 59     73%     29.66 29.67 0 0  
Jun 22 16:23 WSW 6 10 Partly Cloudy FEW080 SCT095 63 57     83%     29.66   0    
Jun 22 15:56 WSW 9 8 Rain FEW027 BKN060 OVC085 64 55     73%     29.66 29.67 0    
Jun 22 15:22 N 5 10 Mostly Clear FEW070 73 52     47%   73 29.64        
Jun 22 14:56 NW 3 10 Clear CLR 68 55     63%     29.64 29.65 0    
Jun 22 14:31 WNW 6 10 Mostly Cloudy FEW038 SCT080 BKN120 70 55     60%     29.63   0    
Jun 22 14:13 NW 6 10 Thunderstorms and Rain SCT060 BKN080 OVC100 68 50     53%     29.63   0    
Jun 22 13:56 N 11 10 Light Rain BKN060 70 53     55%     29.63 29.64 0   0
Jun 22 12:56 7 10 Mostly Clear FEW090 71 59     66%   71 29.63 29.64 0    
Jun 22 12:26 NW 3 10 Partly Cloudy FEW047 SCT080 66 57     73%     29.63   0    
Jun 22 11:56 NW 10 10 Thunderstorms BKN047 BKN070 72 54     53%   71 29.63 29.64      
Jun 22 11:52 6 10 Mostly Cloudy BKN047 72 54     53%   71 29.63        
Jun 22 10:56 7 10 Mostly Clear FEW042 70 54     57%     29.64 29.65      
Jun 22 09:56 N 9 10 Clear CLR 68 53     59%     29.65 29.66      
Jun 22 08:56 N 5 10 Partly Cloudy SCT120 66 54     65%     29.66 29.67      
Jun 22 07:56 N 8 10 Clear CLR 64 53     67%     29.65 29.66      
Jun 22 06:56 N 5 10 Partly Cloudy SCT110 63 52     67%     29.64 29.65      
Jun 22 05:56 NW 3 10 Mostly Clear FEW110 57 51     81%     29.63 29.64      
Jun 22 04:56 Calm 10 Clear CLR 56 50     80%     29.61 29.62      
Jun 22 03:56 3 10 Clear CLR 56 50     80%     29.59 29.59      
Jun 22 02:56 Calm 10 Clear CLR 57 50     77%     29.58 29.59      
Jun 22 01:56 NNW 6 10 Clear CLR 58 51     78%     29.58 29.59      
Jun 22 00:56 5 10 Clear CLR 60 52     75%     29.57 29.58      
Jun 21 23:56 NNW 9 10 Clear CLR 62 53     72%     29.56 29.57      
Jun 21 22:56 NNW 7 10 Cloudy OVC065 63 55     75%     29.56 29.57      
Jun 21 21:56 NNW 8 10 Cloudy OVC100 63 57     81%     29.55 29.56      
Jun 21 20:56 NW 6 10 Cloudy OVC100 64 57     78%     29.54 29.55      
Jun 21 19:56 NNW 9 10 Cloudy FEW037 BKN075 OVC095 64 58     81%     29.53 29.54     0
Jun 21 18:56 N 9 10 Cloudy BKN075 OVC100 64 58     81%     29.52 29.53      
Jun 21 17:56 N 7 10 Cloudy FEW035 BKN041 OVC095 64 59     84%     29.51 29.52 0    
Jun 21 17:38 N 9 10 Cloudy FEW020 SCT030 OVC037 64 61     88%     29.51   0    
Jun 21 16:56 N 13 10 Cloudy FEW011 BKN018 OVC040 64 60     87%     29.49 29.5 0 0  
Jun 21 16:46 N 13 10 Cloudy BKN011 OVC016 64 61     88%     29.49   0    
Jun 21 16:25 N 10 6 Light Rain and Fog/Mist BKN009 BKN014 OVC032 63 61     94%     29.48   0    
Jun 21 16:17 N 9 6 Light Rain and Fog/Mist BKN012 BKN021 OVC037 64 61     88%     29.47   0    
Jun 21 15:56 N 9 10 Cloudy FEW022 BKN033 OVC040 65 60     84%     29.47 29.48      
Jun 21 15:32 N 13 10 Cloudy FEW010 SCT024 OVC035 64 61     88%     29.47        
Jun 21 14:56 N 8 7 Cloudy BKN010 OVC028 63 61     93%     29.46 29.47 0    
Jun 21 14:30 N 14 10 Light Rain BKN012 BKN025 OVC032 64 61     88%     29.45   0    
Jun 21 13:56 N 7 10 Light Rain SCT026 BKN032 OVC040 64 61     90%     29.45 29.46 0   0
Jun 21 13:10 N 9 10 Cloudy SCT016 BKN021 OVC029 63 61     94%     29.44        
Jun 21 12:56 N 8 10 Cloudy BKN014 OVC023 63 60     90%     29.44 29.45      
Jun 21 11:12 N 13 10 Light Rain SCT008 BKN012 OVC020 63 61     94%     29.42   0    
Jun 21 10:56 N 8 10 Light Rain BKN008 BKN012 OVC018 62 61     96%     29.43 29.44 0 0  
May 15 02:38 Calm 3 Fog/Mist SCT008 45 45     100%     29.87        
May 13 23:56 SSW 14 10 Cloudy OVC004 44 43     96% 37   30.1 30.11      
May 13 20:29 SSW 13 10 Cloudy OVC004 45 45     100% 38   30.11        
May 12 15:56 SSW 16 10 Clear CLR 53 29     39%     30.13 30.14      
May 12 04:56 Calm 10 Clear CLR 33 27     78%     30.21 30.22      
May 11 09:56 NW 9 10 Clear CLR 51 31     46%     29.88 29.89      
Jun 11 23:56 WSW 6 10 Clear   62 56     80%     29.84 29.85      
Notice The following observation data may not be complete
Jun 11 10:56   10 Clear CLR   59      %     29.86 29.87      
Jun 10 19:56 SSW 9 10 Clear CLR 59 51     75%     29.96 29.97      
Jun 09 05:56 E 6 10 Cloudy FEW050 BKN090 OVC110 51 45     79%     29.75 29.76 0    
Jun 08 08:56 SSW 10 10 Clear CLR 62 49     62%     30 30.01      
Jun 07 10:56 NNE 5 10 Clear CLR 65 41     42%     29.93 29.94      
Jun 06 03:12 NE 9 10 Mostly Cloudy BKN015 46 41     81% 42   29.99